Weather History for Mayport NS, FL

Change the Weather History Date:

Thursday, October 27, 2011

  Actual Average Record
Temperature  
Mean Temperature 72 °F -  
Max Temperature 80 °F 75 °F 87 °F (2010)
Min Temperature 64 °F 62 °F 48 °F (2005)
Cooling Degree Days 6    
Growing Degree Days 22 (Base 50)    
Moisture  
Dew Point 62 °F    
Average Humidity 78    
Maximum Humidity 88    
Minimum Humidity 56    
Precipitation  
Precipitation 0.00 in - - ()
Sea Level Pressure  
Sea Level Pressure 29.95 in    
Wind  
Wind Speed 1 mph (SE)    
Max Wind Speed 8 mph    
Max Gust Speed -    
Visibility 7 miles    
Events Fog    
Averages and records for this station are not official NWS values.
T = Trace of Precipitation, MM = Missing Value Source: NWS Daily Summary

Daily Weather History Graph

Daily Weather History Graph

Search for Another Location

Airport:

Trip Planner

Search our weather history database for the weather conditions in past years. The results will help you decide how hot, cold, wet, or windy it might be!

Date:

Astronomy

Oct. 27, 2011 Rise Set
Actual Time 7:36 AM EDT 6:42 PM EDT
Civil Twilight 7:11 AM EDT 7:07 PM EDT
Nautical Twilight 6:43 AM EDT 7:35 PM EDT
Astronomical Twilight 6:15 AM EDT 8:03 PM EDT
Moon 8:29 AM EDT (10/27) 7:20 PM EDT (10/27)
Length of Visible Light 11h 55m
Length of Day
11h 06m
New Moon, 1% of the Moon is Illuminated
Oct 27
New Moon
Nov 2
First Quarter
Nov 10
Full
Nov 18
Last Quarter
Nov 25
New

Hourly Weather History & Observations

Time (EDT) Temp. Dew Point Humidity Pressure Visibility Wind Dir Wind Speed Gust Speed Precip Events Conditions
12:52 AM 64.0 °F 60.1 °F 87% 30.00 in 8.0 mi Calm Calm - N/A   Mostly Cloudy
1:52 AM 64.9 °F 61.0 °F 87% 29.99 in 7.0 mi Calm Calm - N/A   Mostly Cloudy
2:52 AM 64.9 °F 61.0 °F 87% 29.98 in 7.0 mi Calm Calm - N/A   Mostly Cloudy
3:10 AM 64.4 °F 60.8 °F 88% 29.97 in 2.5 mi Calm Calm - N/A   Overcast
3:22 AM 64.4 °F 60.8 °F 88% 29.97 in 4.0 mi Calm Calm - N/A   Overcast
3:50 AM 64.4 °F 60.8 °F 88% 29.97 in 0.8 mi Calm Calm - N/A   Mostly Cloudy
3:52 AM 64.0 °F 60.1 °F 87% 29.96 in 0.5 mi Calm Calm - N/A Fog Fog
3:56 AM 64.4 °F 60.8 °F 88% 29.97 in 0.2 mi Calm Calm - N/A Fog Fog
4:08 AM 64.4 °F 60.8 °F 88% 29.96 in 1.2 mi Calm Calm - N/A   Scattered Clouds
4:10 AM 64.4 °F 60.8 °F 88% 29.96 in 3.0 mi Calm Calm - N/A   Scattered Clouds
4:25 AM 64.4 °F 60.8 °F 88% 29.96 in 2.5 mi Calm Calm - N/A   Mostly Cloudy
4:32 AM 64.4 °F 60.8 °F 88% 29.96 in 5.0 mi Calm Calm - N/A   Mostly Cloudy
4:52 AM 64.9 °F 61.0 °F 87% 29.97 in 7.0 mi Calm Calm - N/A   Overcast
5:52 AM 66.9 °F 63.0 °F 87% 29.96 in 8.0 mi Calm Calm - N/A   Overcast
6:02 AM 66.2 °F 62.6 °F 88% 29.96 in 8.0 mi Calm Calm - N/A   Mostly Cloudy
6:52 AM 66.9 °F 63.0 °F 87% 29.96 in 6.0 mi Calm Calm - N/A   Mostly Cloudy
7:52 AM 64.9 °F 61.0 °F 87% 29.97 in 5.0 mi Calm Calm - N/A Fog Shallow Fog
8:52 AM 71.1 °F 64.9 °F 81% 29.97 in 10.0 mi Calm Calm - N/A   Partly Cloudy
9:52 AM 73.0 °F 63.0 °F 71% 29.98 in 10.0 mi Calm Calm - N/A   Mostly Cloudy
10:52 AM 77.0 °F 62.1 °F 60% 29.96 in 10.0 mi Calm Calm - N/A   Scattered Clouds
11:52 AM 75.9 °F 62.1 °F 62% 29.96 in 10.0 mi ENE 4.6 mph - N/A   Mostly Cloudy
12:52 PM 79.0 °F 63.0 °F 58% 29.94 in 10.0 mi East 5.8 mph - N/A   Mostly Cloudy
1:52 PM 78.1 °F 62.1 °F 58% 29.91 in 10.0 mi East 6.9 mph - N/A   Mostly Cloudy
2:52 PM 79.0 °F 63.0 °F 58% 29.89 in 10.0 mi ESE 5.8 mph - N/A   Scattered Clouds
3:52 PM 79.0 °F 62.1 °F 56% 29.88 in 10.0 mi SE 8.1 mph - N/A   Scattered Clouds
4:52 PM 75.9 °F 62.1 °F 62% 29.88 in 10.0 mi ESE 6.9 mph - N/A   Scattered Clouds
5:52 PM 75.9 °F 63.0 °F 64% 29.88 in 10.0 mi SE 6.9 mph - N/A   Scattered Clouds
6:52 PM 73.0 °F 64.0 °F 73% 29.89 in 10.0 mi South 5.8 mph - N/A   Mostly Cloudy
7:52 PM 72.0 °F 64.0 °F 76% 29.91 in 10.0 mi South 5.8 mph - N/A   Scattered Clouds
8:52 PM 72.0 °F 64.0 °F 76% 29.93 in 10.0 mi SSW 4.6 mph - N/A   Mostly Cloudy
9:52 PM 73.0 °F 64.9 °F 76% 29.94 in 10.0 mi South 4.6 mph - N/A   Mostly Cloudy
10:52 PM 70.0 °F 64.0 °F 81% 29.94 in 10.0 mi South 4.6 mph - N/A   Scattered Clouds
11:52 PM 70.0 °F 64.0 °F 81% 29.93 in 10.0 mi Calm Calm - N/A   Partly Cloudy